STARLINK-3805, 52377

Orbit data source: Space-Track

STARLINK-3805, 52377 is a payload satellite owned by SpaceX/Seattle (US) in LEO that was launched on Fri, 29 Apr 2022 UTC via an FALCON 9 launch vehicle from the Air Force Eastern Test Range (AFETR). Payload-class satellites include a variety of spacecraft equipped with specific instruments for various scientific and technological missions. These include communications satellites like Starlink; space stations such as the ISS; scientific satellites like the Hubble; Earth observation satellites from companies like Planet Labs, Umbra, and HawkEye 360; GPS; miniature CubeSats for education and research; and military/defense satellites.

Loading next visibility...
Identifier
52377, 2022-045AY
Orbit
LEO
Country
Flag of USUS
Related business
Manufacturer
SpaceX/Seattle
Mission
Operational Commercial Communications
Bus & Motor
STARLINK, Unknown motor
Mass
297 kg wet, ~275 kg dry
Launch date (UTC)
2022-04-29 (4 years ago)
Launch vehicle
FALCON 9
Launch site
Air Force Eastern Test Range (AFETR)
Object type
Payload
Rocket body
Debris
Shape & HBR
Box + 1 Pan, 10.1 m
Radar Cross Section
11.087 m², Large (>1 m²)

Expand to show TLE details & history
Last TLE update: 17 hours ago

TLE from 17 hours ago
0 STARLINK-3805
1 52377U 22045AY  25348.91362673  .00000716  00000-0  63084-4 0  9995
2 52377  53.2157 209.9149 0001416  92.6700 267.4454 15.08831437203118
Epoch: 2025-12-14T21:55Z
TLE epoch observation values (Epoch: 2025-12-14T21:55:37.349Z)
Latitude
-0.00004°
Longitude
157.18953°
Altitude
540.711 km
Speed
7.593 km/s
True Right ascension
13h 59m 39s
True Declination
0° 00' 00"
Sunlit
Object was in daylight at epoch
Visualization orbit readout
Latitude
Unknown
Longitude
Unknown
Altitude
Unknown
Speed
Unknown
Apparent Right ascension
Unknown
Apparent Declination
Unknown
Sunlit
N/A
Visualization observer readout
Local Sidereal Time
13:18:58
Azimuth
Unknown
Elevation
Unknown
Doppler factor
Unknown
Orbital elements
Apogee altitude
540.994 km
Perigee altitude
539.035 km
Semi-major axis
6,918.152 km
Eccentricity
0.00014
Inclination
53.2157°
RAAN
209.9149°
Arg. of periapsis
92.67°
True anomaly
267.42919°
Mean anomaly
267.4454°
Eccentric anomaly
267.4373°
Mean motion
3.77188 °/min
Orbital period
95.44 mins
BSTAR
0.000063084
Loading maneuver chart data...
Computing Atmospheric mass density...
Loading historical data...
Loading historical data...
Loading historical data...
Loading historical data...
Loading historical data...
Loading historical data...
Loading historical data...

Documentation

Showing up to 5 results
|